Wetterdaten: aktuell Montag, 22.12.2014 19:21
Datum Zeit Temperatur Feuchte Luftdruck Regen Wind Richtung Richtung Taupunkt Windchill
22.12.2014 19:21 10,2 C 95 % 1018,0 hPa 0,0 l/m 35,3 km/h (5 Bft) S-SW45 195 9,4 C 10,2 C
22.12.2014 18:21 9,9 C 96 % 1018,0 hPa 0,0 l/m 37,7 km/h (5 Bft) S-SW22.5 205 9,3 C 6,0 C
22.12.2014 17:21 9,5 C 97 % 1018,0 hPa 0,0 l/m 41,6 km/h (6 Bft) S-SW45 195 9,0 C 5,2 C
22.12.2014 16:21 9,2 C 99 % 1017,0 hPa 0,0 l/m 47,3 km/h (6 Bft) S-SW45 195 9,1 C 4,5 C
22.12.2014 15:21 8,8 C 98 % 1018,1 hPa 0,4 l/m 36,0 km/h (5 Bft) S-SW22.5 195 8,5 C 4,6 C
22.12.2014 14:21 8,4 C 96 % 1018,1 hPa 0,0 l/m 33,1 km/h (5 Bft) S-SW45 195 7,8 C 4,3 C
22.12.2014 13:21 8,1 C 97 % 1018,2 hPa 0,0 l/m 40,4 km/h (6 Bft) S-SW 200 7,7 C 3,4 C
22.12.2014 12:21 7,8 C 97 % 1018,2 hPa 0,0 l/m 38,2 km/h (5 Bft) S45 185 7,4 C 3,1 C
22.12.2014 11:21 7,7 C 96 % 1019,2 hPa 0,0 l/m 40,4 km/h (6 Bft) S45 185 7,1 C 2,9 C
22.12.2014 10:21 7,8 C 93 % 1019,2 hPa 0,0 l/m 48,1 km/h (6 Bft) S-SW22.5 195 6,7 C 2,6 C
22.12.2014 09:21 7,6 C 94 % 1019,2 hPa 0,0 l/m 37,1 km/h (5 Bft) S67.5 190 6,7 C 2,9 C
22.12.2014 08:21 7,6 C 95 % 1019,2 hPa 0,0 l/m 43,1 km/h (6 Bft) S-SW45 195 6,9 C 2,6 C
22.12.2014 07:21 7,6 C 95 % 1019,2 hPa 0,0 l/m 49,6 km/h (6 Bft) S-SW45 200 6,9 C 2,2 C
22.12.2014 06:21 7,7 C 95 % 1019,2 hPa 0,0 l/m 42,4 km/h (6 Bft) S-SW45 200 7,0 C 2,8 C
22.12.2014 05:21 7,7 C 94 % 1020,2 hPa 0,0 l/m 56,0 km/h (7 Bft) SW 220 6,8 C 2,1 C
22.12.2014 04:15 7,5 C 95 % 1020,3 hPa 0,0 l/m 40,8 km/h (6 Bft) S-SW45 195 6,8 C 2,6 C
22.12.2014 03:15 7,4 C 94 % 1021,3 hPa 0,0 l/m 50,7 km/h (7 Bft) S-SW22.5 205 6,5 C 1,9 C
22.12.2014 02:15 7,4 C 93 % 1021,3 hPa 0,0 l/m 42,9 km/h (6 Bft) S22.5 190 6,3 C 2,3 C
22.12.2014 01:15 7,2 C 94 % 1022,3 hPa 0,0 l/m 34,2 km/h (5 Bft) S-SW45 195 6,3 C 2,6 C
22.12.2014 00:15 7,0 C 95 % 1022,3 hPa 0,0 l/m 35,0 km/h (5 Bft) S45 190 6,3 C 2,3 C
21.12.2014 23:15 6,9 C 96 % 1023,4 hPa 0,0 l/m 35,2 km/h (5 Bft) S22.5 190 6,3 C 2,1 C
21.12.2014 22:15 6,7 C 99 % 1023,4 hPa 0,0 l/m 37,4 km/h (5 Bft) S-SW22.5 195 6,6 C 1,7 C
21.12.2014 21:15 6,6 C 99 % 1023,4 hPa 0,0 l/m 36,0 km/h (5 Bft) S-SW 195 6,5 C 1,7 C
21.12.2014 20:15 6,4 C 99 % 1024,4 hPa 0,0 l/m 37,3 km/h (5 Bft) S22.5 185 6,3 C 1,3 C
21.12.2014 20:00 6,4 C 99 % 1024,4 hPa 0,0 l/m 37,5 km/h (5 Bft) S22.5 190 6,3 C 1,3 C
_ Min-Zeit 20:00 01:54 17:54 - 21:48 - - 00:21 20:24
Minimum _ 6,4 C 93 % 1017,0 hPa - 23,5 km/h (4 Bft) - - 6,1 C 0,9 C
_ Max-Zeit 19:12 20:00 20:00 14:54 05:18 - - 18:51 19:12
Maximum _ 10,2 C 99 % 1024,4 hPa 0,4 l/m 56,0 km/h
SW (7 Bft)
- - 9,5 C 10,2 C
Durchschnitt _ 7,7 C 96 % 1020,4 hPa #0,4 l/m 40,1 km/h (6 Bft) S-SW - 7,1 C 3,0 C